This is the latest recevied weather packets stored in our database for station/object N5KJT. If no packets are shown the sender has not sent any weather packets the latest 10 day(s).
| Time | Temp. | Humidity | Pressure | Rain* | Wind** | Luminosity | Snow |
|---|---|---|---|---|---|---|---|
| 1787724617 | 22.78° C | 50% | 1027.6 hPa | 0 mm | - | 0 W/m² | - |
| 1787724317 | 23.33° C | 49% | 1027.7 hPa | 0 mm | - | 0 W/m² | - |
| 1787724017 | 23.33° C | 48% | 1027.9 hPa | 0 mm | - | 0 W/m² | - |
| 1787723717 | 23.33° C | 48% | 1027.9 hPa | 0 mm | - | 0 W/m² | - |
| 1787723417 | 22.78° C | 49% | 1027.8 hPa | 0 mm | - | 0 W/m² | - |
| 1787723117 | 22.22° C | 50% | 1027.7 hPa | 0 mm | - | 0 W/m² | - |
| 1787722817 | 21.67° C | 52% | 1027.6 hPa | 0 mm | - | 0 W/m² | - |
| 1787722517 | 21.11° C | 53% | 1027.5 hPa | 0 mm | - | 0 W/m² | - |
| 1787722217 | 21.11° C | 57% | 1027.2 hPa | 0 mm | - | 0 W/m² | - |
| 1787721917 | 21.11° C | 53% | 1026.7 hPa | 0 mm | - | 0 W/m² | - |
| 1787721617 | 21.11° C | 54% | 1026.6 hPa | 0 mm | - | 0 W/m² | - |
| 1787721317 | 21.11° C | 52% | 1026.7 hPa | 0 mm | - | 0 W/m² | - |
| 1787721017 | 21.11° C | 51% | 1026.6 hPa | 0 mm | - | 0 W/m² | - |
| 1787720717 | 21.11° C | 51% | 1026.5 hPa | 0 mm | - | 0 W/m² | - |
| 1787720417 | 21.11° C | 53% | 1026.4 hPa | 0 mm | - | 0 W/m² | - |
| 1787720117 | 21.11° C | 53% | 1026.4 hPa | 0 mm | - | 0 W/m² | - |
| 1787719817 | 21.11° C | 52% | 1026.4 hPa | 0 mm | - | 0 W/m² | - |
| 1787719517 | 21.11° C | 50% | 1026.4 hPa | 0 mm | - | 0 W/m² | - |
| 1787719217 | 21.11° C | 50% | 1026.5 hPa | 0 mm | - | 0 W/m² | - |
| 1787718917 | 21.11° C | 51% | 1026.6 hPa | 0 mm | - | 0 W/m² | - |
| 1787718617 | 21.11° C | 51% | 1026.6 hPa | 0 mm | - | 0 W/m² | - |
| 1787718317 | 21.67° C | 52% | 1026.6 hPa | 0 mm | - | 0 W/m² | - |
| 1787718017 | 21.67° C | 52% | 1026.5 hPa | 0 mm | - | 0 W/m² | - |
| 1787717717 | 21.67° C | 48% | 1026.4 hPa | 0 mm | - | 0 W/m² | - |
| 1787717417 | 21.67° C | 53% | 1026.4 hPa | 0 mm | - | 0 W/m² | - |
* Rain latest hour (hover to see other rain measurements)
** Current wind speed in m/s (hover to see current wind gust speed)